Tracking 18957 objects as of 21-Jan-2018
HD Live streaming from Space Station
objects crossing your sky now

COSMOS 340

Track COSMOS 340 now!
10-day predictions
COSMOS 340 is classified as:


NORAD ID: 4387
Int'l Code: 1970-036E
Perigee: 1,413.8 km
Apogee: 1,477.1 km
Inclination: 74.0 °
Period: 114.6 minutes
Semi major axis: 7816 km
RCS: 0.7658 m2 (medium)
Launch date: April 25, 1970
Source: Commonwealth of Independent States (former USSR) (CIS)
Launch site: PLESETSK MISSILE AND SPACE COMPLEX (PKMTR)
aabbcc
Your satellite tracking list
Your tracking list is empty




NASA's NSSDC Master Catalog

Two Line Element Set (TLE):
1  4387U 70036E   18020.70293050 -.00000013 +00000-0 +17922-4 0  9995
2  4387 074.0280 079.9518 0040467 238.8275 268.3894 12.56282897189053
Source of the keplerian elements: AFSPC